Regional Weather Roundup
Issued by NWS

Home | Current Version | Previous Version | Graphics & Text | Print | Product List | Glossary On
Versions: 1 2 3 4 5 6 7 8 9 10 11 12 13 14 15 16 17 18 19 20 21 22 23 24 25 26 27 28 29 30 31 32 33 34 35 36 37 38 39 40 41 42 43 44 45 46 47 48 49 50
000
ASUS43 KBIS 282220
RWRND

NORTH DAKOTA REGIONAL WEATHER ROUNDUP
NATIONAL WEATHER SERVICE BISMARCK ND
400 PM CST WED JAN 28 2015

NOTE: "FAIR" INDICATES FEW OR NO CLOUDS BELOW 12,000 FEET WITH NO
SIGNIFICANT WEATHER AND/OR OBSTRUCTIONS TO VISIBILITY.


NDZ001>003-009>011-017-282300-
NORTHWEST NORTH DAKOTA

CITY           SKY/WX    TMP DP  RH WIND       PRES   REMARKS
WILLISTON      CLOUDY    34  29  82 N18G24    30.10R
MINOT          CLOUDY    29  26  89 NW22G29   29.99R WCI  15
MINOT AFB      CLOUDY    28  28 100 NW21      30.00R WCI  15
$$

NDZ018>021-031>035-040>046-282300-
SOUTHWEST NORTH DAKOTA

CITY           SKY/WX    TMP DP  RH WIND       PRES   REMARKS
BISMARCK       CLOUDY    34  30  85 NW22G31   29.95R
DICKINSON      CLOUDY    32  28  85 NW25G36   30.02R WCI  19
GARRISON         N/A     31  29  92 NW26G35   29.98R WCI  17
HETTINGER ARPT CLOUDY    32  28  85 NW28G37   30.00R WCI  18
$$

NDZ004>008-012>016-024-026-027-054-282300-
NORTHEAST NORTH DAKOTA

CITY           SKY/WX    TMP DP  RH WIND       PRES   REMARKS
GRAND FORKS    CLOUDY    34  32  93 N13       29.82R
GRND FRKS AFB  CLOUDY    32  32 100 N15G21    29.83R FOG
DEVILS LAKE    CLOUDY    28  27  93 NW22G28   29.88R WCI  15
$$

NDZ022-023-025-028>030-036>039-047>053-282300-
SOUTHEAST NORTH DAKOTA

CITY           SKY/WX    TMP DP  RH WIND       PRES   REMARKS
FARGO          CLOUDY    36  32  85 SW6       29.79R FOG
JAMESTOWN      CLOUDY    33  31  92 NW18G26   29.82R
$$



USA.gov is the U.S. government's official web portal to all federal, state and local government web resources and services.